Location: Bucharest
(44.4268°N, 26.1025°E)
Time: 00:51:20
(UTC+03:00)

ESTCUBE 1 - Pass Details

Date: 03 July 2022
Orbit: 646 x 657 km, 97.9° (Epoch: 07 August)

Event Time Altitude Azimuth Distance (km) Brightness Sun altitude
Exits shadow 23:51:51 30° 211° (SSW) 1,157 ? -19.7°
Maximum altitude 23:53:33 44° 261° (W) 898 ? -19.8°
Drops below altitude 10° 23:57:51 10° 334° (NNW) 2,059 ? -20.1°
Sets 00:00:10 0° 341° (NNW) 2,976 ? -20.2°
